Wind_Speed
19 18 17 18 19 20 21 21 22 21 18 18 16 15 16 17 17 12 9 11 5 17 11 9 5 6 5 2 2 4 3 3 6 7 5 7 8 1 4 12 6 12 5 4 7
19 19 19 18 18 19 20 21 21 20 18 18 19 15 14 16 17 15 20 10 7 23 11 7 4 6 3 1 1 4 4 10 8 7 5 7 9 4 5 9 8 3 14 4 9
20 20 21 21 20 20 19 19 20 21 18 19 18 16 13 13 5 8 3 9 16 22 9 7 6 5 3 3 4 6 7 5 7 8 9 13 14 5 10 13 16 10 17 7 7
20 21 22 23 23 22 22 20 21 22 20 18 18 14 12 3 5 1 3 6 23 17 8 6 3 5 4 6 6 3 9 6 13 7 5 9 5 10 10 11 13 15 21 5 2
24 24 24 24 24 24 25 24 25 26 22 17 13 10 2 1 11 13 6 10 21 17 13 6 6 5 5 4 4 4 5 7 11 9 9 8 11 12 11 17 12 9 15 13 12
25 26 26 27 27 27 27 27 30 26 20 16 10 4 2 5 7 8 10 16 17 19 12 9 7 7 2 4 4 5 9 18 13 13 7 7 13 7 12 17 10 3 7 18 17
28 29 28 28 29 29 30 31 30 27 18 12 7 5 3 15 2 2 10 14 18 22 6 14 8 3 3 6 7 7 6 8 11 12 9 8 8 9 19 5 9 8 8 8 9
30 29 27 28 29 29 29 31 29 24 18 8 5 6 8 7 5 17 11 11 9 18 16 6 12 2 4 6 6 3 0 4 7 1 6 11 9 9 11 9 12 9 8 8 8
29 31 30 29 27 28 30 32 22 8 3 7 8 4 9 5 7 18 21 10 13 13 15 6 8 7 2 2 4 3 4 4 7 5 1 5 7 9 9 7 10 9 9 9 9
29 28 31 31 30 28 29 22 4 6 8 7 0 1 7 4 5 12 27 22 6 2 3 6 3 3 3 4 7 4 3 4 5 5 3 8 10 15 9 9 11 8 9 8 9
28 29 30 32 32 30 26 5 1 2 5 9 7 5 4 10 5 10 21 7 4 2 4 3 3 6 9 7 5 5 4 5 10 15 1 8 9 12 5 6 7 7 7 7 8
26 30 32 32 38 33 9 3 5 1 8 16 13 9 15 5 4 3 17 6 5 6 2 1 6 10 5 5 6 6 7 12 9 12 5 8 8 7 4 3 4 7 8 9 3
26 29 31 35 31 4 6 10 7 11 3 6 7 6 6 10 6 6 9 5 4 6 5 5 7 3 6 9 7 10 5 8 10 3 2 3 7 7 4 6 7 6 7 5 9
27 29 29 35 4 8 9 2 17 6 3 5 3 5 6 6 4 13 13 6 1 8 3 5 9 8 9 9 9 11 13 12 6 3 2 2 4 5 5 8 4 4 5 7 7
29 30 30 19 17 6 3 13 9 3 3 4 3 7 7 9 2 2 16 4 7 6 6 6 3 3 4 6 2 9 4 8 3 3 3 2 3 7 4 4 5 5 7 7 8
32 31 31 18 10 22 15 16 3 3 5 2 5 7 6 4 1 3 3 3 3 4 2 6 4 2 5 4 5 2 3 7 4 3 2 4 3 5 3 3 1 1 3 6 6
34 36 31 17 7 7 8 1 3 3 3 4 5 6 7 6 5 7 7 8 6 3 4 4 4 3 3 1 4 5 5 2 3 3 4 4 2 6 5 3 5 6 4 1 6
38 37 26 21 12 12 4 4 4 5 6 3 2 5 7 6 6 8 9 7 5 2 2 4 3 2 4 1 4 1 6 5 5 3 2 3 3 4 2 4 8 11 8 11 13
39 21 14 8 22 10 4 2 6 4 3 2 2 3 1 1 5 4 8 8 6 9 8 5 4 2 4 2 1 2 2 3 5 3 3 4 2 5 3 5 13 10 10 8 8
27 14 9 5 20 11 3 5 4 3 4 2 3 2 2 3 1 3 5 1 4 3 3 4 2 1 3 2 1 4 6 3 3 3 3 3 4 5 2 8 7 8 8 7 6
8 4 1 16 18 4 4 6 5 5 2 2 4 3 2 3 1 4 4 2 4 2 5 3 3 4 1 3 5 1 3 5 5 2 4 2 3 2 5 7 8 6 5 6 7
6 4 9 20 2 2 4 5 5 4 3 2 2 3 4 2 2 2 4 2 6 2 5 3 4 3 7 3 2 2 3 4 4 4 3 3 3 1 7 7 5 6 4 5 6
5 3 4 6 3 3 5 5 4 4 3 3 3 4 0 4 2 1 3 2 7 3 7 5 1 2 7 3 3 2 1 4 6 4 4 3 4 3 3 5 4 5 6 6 6
2 4 3 2 0 1 3 4 4 3 3 5 4 4 2 2 3 3 1 3 6 6 8 6 3 5 6 3 3 1 3 5 5 3 4 7 4 5 1 2 4 5 5 7 7
2 3 1 3 1 4 3 4 3 3 2 3 4 3 3 3 2 3 3 5 4 8 3 4 3 3 5 5 3 4 7 8 8 11 6 6 4 6 5 3 4 5 5 6 7
2 2 3 4 5 5 3 4 6 3 2 1 6 4 4 3 2 4 2 0 2 5 3 3 2 1 4 4 6 7 10 9 9 9 14 7 2 2 4 3 5 6 6 7 10
4 4 0 3 4 2 4 4 2 7 7 4 7 4 4 3 3 5 6 3 3 2 1 2 4 3 4 3 4 6 8 12 3 2 3 5 3 3 3 5 6 5 4 8 10
Wind_Direction
342 342 341 342 341 340 340 341 339 339 338 336 329 321 321 322 317 302 234 233 222 186 174 178 193 138 118 98 136 119 64 238 232 180 227 297 285 186 259 284 317 311 82 79 111
343 340 339 340 339 338 339 339 337 335 332 332 330 322 320 326 314 265 269 215 200 174 180 159 142 124 75 142 149 114 151 225 197 185 216 242 248 281 282 293 289 194 275 21 154
346 344 342 340 339 337 337 336 336 331 328 326 326 322 319 329 301 249 349 194 174 170 163 159 132 117 137 140 198 184 219 142 226 222 226 256 281 257 266 274 263 224 241 253 178
345 344 340 338 337 335 332 328 330 327 320 320 324 320 319 336 294 330 324 178 176 180 173 161 127 122 156 198 201 214 238 222 274 225 247 241 226 264 248 241 261 236 211 175 313
342 338 336 333 332 330 328 324 323 319 312 311 315 316 333 198 251 268 267 172 167 178 183 164 144 156 187 210 166 217 270 249 255 248 234 254 249 245 276 281 270 278 223 192 249
337 335 331 329 327 325 324 320 320 317 308 304 301 289 206 250 258 275 246 178 178 173 185 174 189 197 217 225 151 245 255 258 265 260 247 218 256 132 269 260 261 239 220 214 245
335 334 331 329 327 324 321 320 315 309 301 293 276 205 238 239 174 329 206 196 194 194 163 205 190 133 150 307 227 253 266 270 243 249 239 193 281 207 238 183 264 219 221 222 171
332 333 331 330 327 322 317 315 309 304 292 269 210 186 245 255 281 233 213 223 227 218 211 193 199 199 168 246 324 301 197 302 286 253 243 138 259 247 246 238 230 253 244 218 220
332 331 330 330 326 322 318 320 316 324 282 154 148 190 266 266 246 228 215 225 220 221 233 250 136 194 223 105 343 344 241 240 298 215 278 144 250 251 231 176 251 256 256 243 240
331 331 331 330 327 323 325 328 330 91 108 145 167 331 264 252 197 203 211 225 219 182 234 199 146 167 52 105 235 254 265 304 294 283 358 282 252 263 240 179 221 251 262 260 229
332 332 334 331 329 323 323 339 72 218 221 199 191 250 265 342 224 186 199 192 190 244 231 238 153 217 228 212 231 285 271 275 282 282 292 265 266 282 226 182 229 264 268 264 246
333 332 334 333 330 320 271 222 237 3 295 225 236 253 273 321 319 252 171 152 150 203 205 47 230 231 227 218 224 253 272 282 291 265 156 280 306 309 156 201 224 252 273 249 284
331 333 333 330 334 324 270 252 311 299 264 284 186 209 224 150 208 254 152 155 158 193 187 185 233 186 230 265 264 263 223 260 228 293 305 14 325 340 1 23 0 310 269 239 209
329 331 332 331 330 318 272 319 338 165 18 267 225 249 168 166 247 209 181 142 196 201 208 240 258 251 264 249 234 251 242 237 242 112 213 36 269 313 321 331 3 353 37 24 21
328 329 329 323 291 271 224 325 345 126 321 174 191 169 148 158 172 249 171 97 189 203 142 230 224 219 236 236 214 233 219 192 159 106 94 332 91 268 327 337 350 28 80 86 87
324 324 326 320 241 256 287 316 122 35 260 282 139 168 130 214 174 83 138 80 168 194 255 237 287 258 231 267 251 8 67 47 55 100 92 270 138 293 324 264 201 360 81 118 104
323 320 309 268 236 158 351 37 61 186 302 197 204 164 176 177 201 153 163 194 193 144 253 313 265 241 222 232 14 78 55 346 343 2 222 255 104 237 273 187 136 132 201 167 39
322 319 307 261 259 266 287 60 208 233 268 264 297 122 181 161 232 177 156 202 249 143 108 187 310 226 350 132 170 129 151 156 200 202 271 245 229 252 290 129 149 73 75 51 47
325 317 290 261 212 203 96 173 216 216 299 346 286 112 287 83 160 140 168 203 207 177 179 174 253 360 50 6 157 180 76 188 101 330 75 236 186 341 104 101 57 62 60 40 35
327 312 273 220 162 152 97 231 241 250 346 284 196 96 129 334 92 89 157 213 180 178 174 209 241 22 303 1 281 190 160 84 20 187 240 265 202 194 177 92 72 58 46 18 9
315 326 303 168 148 71 182 224 252 269 8 289 185 134 144 155 139 164 214 130 357 55 99 114 116 271 29 191 208 293 127 63 100 138 182 233 232 13 115 139 112 71 37 8 356
347 319 103 151 116 206 187 206 225 230 191 333 100 126 142 142 164 208 147 73 338 284 148 155 137 186 231 262 336 215 161 121 127 197 222 152 264 83 146 127 114 90 33 347 341
311 258 299 201 203 258 276 257 239 213 224 102 59 17 227 161 169 58 79 40 350 100 161 188 37 36 337 5 10 126 75 171 122 84 208 168 260 145 72 71 66 44 349 335 324
310 311 306 28 116 201 280 253 196 14 79 88 110 136 110 114 25 131 54 360 357 39 50 91 134 167 197 193 165 247 216 155 142 151 204 209 189 203 135 71 1 334 316 305 299
196 251 257 314 334 323 282 288 185 188 62 82 64 91 148 136 60 112 43 346 15 1 55 91 188 199 239 236 232 240 256 255 184 202 198 246 242 185 199 206 247 258 268 277 278
273 308 351 274 291 298 3 249 201 131 98 69 126 136 76 132 164 172 105 77 266 7 48 358 192 218 284 259 238 256 250 253 255 244 219 231 183 144 200 251 280 293 302 314 317
300 311 222 290 310 320 334 325 349 115 28 90 136 114 123 182 163 190 192 194 201 107 30 30 135 101 262 308 316 282 245 228 148 113 159 178 161 160 260 277 279 295 311 292 317
Height
820 817 813 811 808 805 803 800 797 794 791 789 787 784 781 779 776 773 768 758 756 761 765 766 767 768 770 773 775 779 804 814 800 792 786 772 772 762 757 756 748 737 738 742 738
819 816 812 808 805 803 801 798 796 794 790 787 785 782 780 778 774 766 749 752 755 758 763 763 765 767 774 775 779 788 811 798 781 775 775 772 771 766 761 760 751 745 736 741 741
818 814 811 808 804 801 798 796 794 792 790 786 784 781 779 778 777 751 745 747 754 758 762 763 764 766 776 778 780 787 790 774 766 767 769 769 767 763 763 761 749 750 737 733 744
817 813 810 806 802 799 796 793 790 789 788 785 783 781 779 778 775 746 747 747 752 756 760 762 765 772 778 780 774 779 769 767 755 762 765 767 760 761 755 751 737 733 731 731 741
817 813 809 805 801 797 794 791 788 785 783 783 781 781 780 779 764 748 747 749 752 755 757 760 766 770 775 772 769 772 764 761 755 758 759 758 761 756 748 737 731 728 722 727 729
815 811 807 803 799 794 791 787 783 780 779 778 779 779 781 779 748 747 746 748 750 753 756 758 759 761 765 766 768 759 760 755 751 752 753 757 751 753 742 729 729 725 725 722 725
813 808 804 800 796 792 787 783 779 776 773 773 776 777 777 757 746 746 746 747 748 750 753 754 754 756 760 764 757 757 766 759 754 747 751 744 758 752 732 728 732 727 724 723 727
810 805 800 796 792 788 783 778 773 770 769 769 772 776 767 745 745 745 746 746 747 750 750 750 754 759 762 757 759 762 763 771 747 739 738 742 762 738 729 729 733 731 726 725 725
807 803 798 793 788 784 780 774 769 766 766 768 771 773 760 743 742 739 742 742 744 747 748 751 755 761 758 768 777 774 780 770 756 737 735 742 752 731 723 730 730 728 726 725 724
804 799 794 789 784 780 775 770 768 768 768 770 771 772 747 737 733 734 738 740 743 744 749 752 757 763 773 777 790 780 774 766 763 743 739 747 748 728 722 727 729 727 727 726 722
800 795 789 785 780 776 774 770 771 772 767 754 749 746 737 733 731 733 735 740 744 745 758 750 765 771 767 769 765 766 767 769 754 738 744 744 745 729 719 721 723 722 721 723 722
795 792 786 780 775 771 769 771 759 758 756 742 741 741 734 737 739 730 734 744 747 758 752 761 765 753 754 758 763 765 769 766 754 738 747 742 736 727 720 715 717 719 722 722 722
792 787 782 775 769 766 766 761 757 755 758 735 733 734 731 734 738 734 733 737 746 755 755 763 751 745 752 755 760 759 764 760 759 739 737 740 749 739 722 720 718 717 718 716 719
788 783 779 772 768 765 760 755 754 753 765 741 730 723 725 726 734 724 728 735 744 753 752 756 742 746 749 754 750 762 738 742 744 751 766 747 778 752 735 732 730 729 728 728 728
784 781 777 774 773 765 754 752 751 753 776 724 725 713 716 726 722 724 722 732 747 747 751 751 743 745 749 743 733 747 730 737 741 754 757 757 773 757 743 738 739 736 732 731 728
778 775 772 769 764 750 751 750 750 771 769 726 716 722 726 723 721 723 728 727 732 744 741 744 732 736 737 727 727 724 733 748 759 765 778 767 768 768 752 741 737 736 736 733 731
770 766 764 764 754 746 749 750 771 773 721 723 722 718 723 728 726 727 736 742 751 759 759 745 741 730 726 734 731 736 755 776 778 781 783 762 768 764 742 734 736 740 740 737 737
762 755 747 743 745 751 750 760 769 737 725 710 712 717 727 723 724 726 736 747 743 744 760 760 761 736 730 733 741 740 752 780 780 783 777 759 768 756 734 732 732 741 750 749 748
756 746 739 729 736 746 752 766 752 734 718 720 714 724 728 719 720 724 734 738 737 739 757 761 755 734 731 728 731 742 760 751 771 768 790 767 752 742 735 736 749 753 753 758 757
755 749 735 731 732 741 754 753 739 720 717 718 725 724 737 732 729 729 731 726 728 728 729 741 757 741 735 730 731 737 739 763 776 779 783 763 758 759 742 762 760 760 761 760 758
758 751 729 729 734 742 752 748 728 715 718 721 727 731 732 735 732 737 733 727 728 727 728 739 751 754 744 745 750 747 754 764 771 781 787 781 762 745 758 759 762 763 761 761 759
763 761 735 733 742 745 744 731 716 716 715 718 718 723 730 734 734 734 735 733 730 728 735 739 759 765 754 742 740 740 745 757 781 780 788 792 768 756 758 757 758 759 759 761 761
768 756 731 733 743 743 731 720 716 716 715 718 727 727 727 735 738 735 733 734 730 730 738 740 760 770 761 753 747 747 744 747 760 773 777 780 774 760 762 763 762 761 762 763 761
768 758 736 730 731 732 729 724 719 714 718 722 727 729 733 735 735 739 739 736 733 732 732 736 757 759 765 757 755 753 746 746 752 777 771 765 759 763 764 763 761 763 765 764 761
765 755 748 743 732 737 735 725 721 722 720 722 732 733 736 742 741 745 744 743 737 738 737 742 756 756 751 750 748 749 747 743 750 761 762 755 747 761 761 761 762 765 765 764 762
761 753 749 749 741 737 730 731 726 723 725 730 733 736 737 741 742 750 748 747 746 746 747 748 758 754 754 746 747 748 743 741 741 740 744 740 758 756 759 759 761 761 761 761 757
759 754 752 747 742 740 738 730 723 722 729 728 733 738 740 742 742 745 748 748 748 749 752 751 755 761 762 749 748 754 738 734 740 747 744 754 756 758 759 759 760 759 761 761 756